SWIFT

Last updated on Thu Oct 30 2025 00:02:41 GMT+0000 (Coordinated Universal Time)

1 28485U 04047A 25302.21888918 .00042097 00000+0 80652-3 0 9994 2 28485 20.5532 137.7785 0005961 21.7055 338.3639 15.46221421150802
UTC large
Height (km)
Speed (km/s)
/
Latitude / Longitude
Inclination (degrees)
Orbital Period (minutes)
Azimuth
Elevation
Range (km)
Doppler Factor

Next 0 passes for location: London (51.5072 / 0.1276)

Sorry there are no passes over London.